Voltar ao catálogo

ION SCV-017

AtivoCiênciaSSO
NORAD 63230·PAYLOAD·🇮🇹 Italy

Lançado Mar 15, 2025 de Vandenberg Space Force Base

Loading…

Próximas Passagens (próximas 24 horas)

TLE

AtualizadoSource: Space-Track

Época: Sep 14, 2026, 16:20 UTC

1 63230U 25052W   26257.68116594  .00003563  00000-0  13052-3 0  9991
2 63230  97.3769 152.0653 0023452  92.7182 267.6743 15.28413477 83709

Acompanhe ION SCV-017 em tempo real com AllMySat

Download on the App Store